Miscellaneous Local Product
Issued by NWS Hastings, NE

Home | Current Version | Previous Version | Graphics & Text | Print | Product List | Glossary On
Versions: 1 2 3 4 5 6 7 8 9 10 11 12 13 14 15 16 17 18 19 20 21 22 23 24 25 26 27 28 29 30 31 32 33 34 35 36 37 38 39 40 41 42 43 44 45 46 47 48 49 50
000
AXUS43 KGID 252202
MISGRI

GID CWA HOURLY WEATHER ROUNDUP
NATIONAL WEATHER SERVICE HASTINGS NE
500 PM CDT MON MAY 25 2015

NOTE: "FAIR" INDICATES FEW OR NO CLOUDS BELOW 12,000 FEET WITH NO
SIGNIFICANT WEATHER AND/OR OBSTRUCTIONS TO VISIBILITY.

...SOUTH CENTRAL NEBRASKA...

CITY           SKY/WX    TMP DP  RH WIND       PRES   REMARKS
GRAND ISLAND   PTSUNNY   75  55  49 S9G16     29.77F
HASTINGS       SUNNY     75  56  51 SW7       29.77F
KEARNEY        PTSUNNY   75  54  46 SW13      29.76F
ORD            MOSUNNY   71  52  50 SW13      29.75S
YORK           MOSUNNY   75  57  53 SW12G17   29.77F
AURORA         MOSUNNY   75  56  52 S9G20     29.77F
LEXINGTON      SUNNY     74  53  47 W12G17    29.76F
HOLDREGE       MOSUNNY   75  51  42 SW10G21   29.77F
HEBRON         MOSUNNY   75  58  55 SW8       29.76F

...NEBRASKA PANHANDLE...

CITY           SKY/WX    TMP DP  RH WIND       PRES   REMARKS
CHADRON        LGT RAIN  57  53  86 N3        29.85R
ALLIANCE       LGT RAIN  55  51  86 CALM      29.87S
SCOTTSBLUFF    CLOUDY    57  52  83 SW5       29.89S
SIDNEY         LGT RAIN  54  51  90 N17G23    29.90R

...WESTERN AND NORTH CENTRAL NEBRASKA...

CITY           SKY/WX    TMP DP  RH WIND       PRES   REMARKS
VALENTINE      LGT RAIN  56  54  93 NW3       29.83F
AINSWORTH      PTSUNNY   62  57  84 NW13      29.80F
ONEILL         PTSUNNY   73  55  52 SW10      29.77F
BROKEN BOW     MOSUNNY   71  54  54 SW7       29.77F
IMPERIAL       CLOUDY    59  50  72 W20G25    29.82F
NORTH PLATTE   MOSUNNY   69  52  54 W13       29.80S
MCCOOK         MOSUNNY   74  49  41 W15       29.78F

...EASTERN NEBRASKA...

CITY           SKY/WX    TMP DP  RH WIND       PRES   REMARKS
NORFOLK        MOSUNNY   75  55  49 S15G24    29.75S
SO SIOUX CITY  PTSUNNY   80  55  42 SW22      29.75F
TEKAMAH        MOSUNNY   82  57  42 SW14      29.75F
COLUMBUS       MOSUNNY   77  55  47 S14G20    29.79F
ALBION         MOSUNNY   75  52  43 SW14G20   29.76S
OMAHA EPPLEY   MOSUNNY   81  61  50 S15       29.75F
OFFUTT AFB     MOSUNNY   78  61  55 S12       29.75F
MILLARD        PTSUNNY   78  62  58 S8        29.76F
LINCOLN        MOSUNNY   79  61  53 SW10      29.75F
NEBRASKA CITY  MOSUNNY   77  59  52 S16       29.78F
BEATRICE       SUNNY     79  63  58 S14       29.76F
FALLS CITY     LGT RAIN  73  66  78 SE10      29.77F

...NORTHERN KANSAS...

CITY           SKY/WX    TMP DP  RH WIND       PRES   REMARKS
GOODLAND       MOSUNNY   69  49  48 NW16      29.86F
HILL CITY      PTSUNNY   78  54  43 NW10      29.77F
NORTON         PTCLDY    75  43  31 W12       29.77F
PHILLIPSBURG   MOSUNNY   79  54  41 SW8       29.75F
SMITH CENTER   MOSUNNY   73  59  60 W5        29.75F
HAYS           MOSUNNY   73  57  56 SW9       29.76F
RUSSELL        MOSUNNY   76  59  55 SW12      29.73F
CONCORDIA      PTSUNNY   75  61  61 S9        29.75F
SALINA         TSTM      63  58  83 S26G40    29.74F
TOPEKA         MOSUNNY   79  65  62 S16G24    29.77F



USA.gov is the U.S. government's official web portal to all federal, state and local government web resources and services.